GW3897 Weather Reports


time (UTC)temp
F
wind
direction
speed
knots
gust
knots
rain 1hr
in
rain 24hr
in
rain mn
in
humidity
%
barometer
mb
20260504081523 45 139 6.1 14.8 0.00 0.00 0.00 57 1005.4
20260504044536 53 180 13.9 21.7 0.00 0.00 0.00 32 1000.8
20260504043041 56 113 10.4 18.2 0.00 0.00 0.00 32 1000.3
20260504041535 56 79 6.1 13.0 0.00 0.00 0.00 31 1000.0
20260504040035 57 180 6.1 13.0 0.00 0.00 0.00 30 999.6
20260504034533 57 180 6.1 12.2 0.00 0.00 0.00 30 999.2
20260504033033 57 180 7.0 14.8 0.00 0.00 0.00 31 998.9
20260504031534 57 180 6.1 14.8 0.00 0.00 0.00 31 998.6
20260504030033 58 180 7.0 13.0 0.00 0.00 0.00 30 998.4
20260504024534 59 180 6.1 14.8 0.00 0.00 0.00 29 998.2
20260504023034 61 180 9.6 15.6 0.00 0.00 0.00 27 998.0
20260504021531 63 105 6.1 13.0 0.00 0.00 0.00 22 998.0
20260504020043 64 180 4.3 7.0 0.00 0.00 0.00 20 998.0
20260504014538 66 180 3.5 9.6 0.00 0.00 0.00 18 998.2
20260504013036 67 180 6.1 10.4 0.00 0.00 0.00 17 998.2
20260504011527 69 92 7.8 13.9 0.00 0.00 0.00 16 998.3
20260504010026 69 180 6.1 11.3 0.00 0.00 0.00 16 998.3
20260504004531 70 65 7.8 12.2 0.00 0.00 0.00 16 998.4
20260504003023 71 180 7.0 11.3 0.00 0.00 0.00 15 998.6
20260504001522 71 180 7.8 14.8 0.00 0.00 0.00 15 998.8
20260504000022 72 180 7.0 15.6 0.00 0.00 0.00 16 998.8
20260503234522 72 180 7.8 13.0 0.00 0.00 0.00 15 998.8
20260503233022 72 180 7.0 13.9 0.00 0.00 0.00 15 999.0
20260503231520 73 180 7.0 15.6 0.00 0.00 0.00 15 999.0
20260503230016 72 15 12.2 20.9 0.00 0.00 0.00 14 999.1
20260503224515 73 180 8.7 13.9 0.00 0.00 0.00 15 999.4
20260503223014 73 180 7.8 16.5 0.00 0.00 0.00 14 999.5
20260503221513 73 180 7.0 20.0 0.00 0.00 0.00 15 999.7
20260503220011 72 281 4.3 21.7 0.00 0.00 0.00 15 999.8
20260503214508 72 37 10.4 20.0 0.00 0.00 0.00 14 1000.2
20260503213009 72 180 10.4 18.2 0.00 0.00 0.00 15 1000.2
20260503211505 72 77 6.1 20.9 0.00 0.00 0.00 15 1000.4
20260503210005 71 18 9.6 18.2 0.00 0.00 0.00 16 1000.8
20260503204502 71 180 10.4 15.6 0.00 0.00 0.00 16 1001.0
20260503203003 70 18 9.6 16.5 0.00 0.00 0.00 17 1001.1
20260503201600 72 36 8.7 18.2 0.00 0.00 0.00 17 1001.2
20260503200105 70 180 5.2 14.8 0.00 0.00 0.00 17 1001.7
20260503194557 70 17 10.4 15.6 0.00 0.00 0.00 18 1001.9
20260503193055 70 180 6.1 13.9 0.00 0.00 0.00 19 1002.1
20260503191553 68 180 7.0 16.5 0.00 0.00 0.00 16 1002.3
20260503190058 68 180 8.7 22.6 0.00 0.00 0.00 16 1002.6
20260503184547 68 180 7.8 17.4 0.00 0.00 0.00 16 1002.6
20260503183045 68 6 7.8 16.5 0.00 0.00 0.00 17 1002.7
20260503181551 68 180 7.0 13.0 0.00 0.00 0.00 17 1002.9
20260503180049 69 349 7.0 13.0 0.00 0.00 0.00 17 1003.1
20260503174540 69 180 6.1 13.0 0.00 0.00 0.00 20 1003.3
20260503173039 68 71 7.0 14.8 0.00 0.00 0.00 20 1003.6
20260503171537 68 56 6.1 13.0 0.00 0.00 0.00 20 1003.5